Puebla, Mexico

6:02 AM CST on December 13, 2017 (GMT -0600)
Hermanos Serdan International

Weather History for MMPB - December, 2012

Change the Weather History Date:

Saturday, December 8, 2012

  Actual Average Record
Temperature  
Mean Temperature 54 °F -  
Max Temperature 72 °F 66 °F 79 °F (2016)
Min Temperature 35 °F 42 °F 35 °F (2010)
Degree Days  
Heating Degree Days 12    
Growing Degree Days 4 (Base 50)    
Moisture  
Dew Point 34 °F    
Average Humidity 41    
Maximum Humidity 77    
Minimum Humidity 16    
Precipitation  
Precipitation 0.00 in - - ()
Sea Level Pressure  
Sea Level Pressure 30.13 in    
Wind  
Wind Speed 5 mph ()    
Max Wind Speed 18 mph    
Max Gust Speed -    
Visibility 6.9 miles    
Events      
Averages and records for this station are not official NWS values.
T = Trace of Precipitation, MM = Missing Value Source: Averaged Metar Reports

Daily Weather History Graph

Daily Weather History Graph

Search for Another Location

Airport or City:

Trip Planner

Search our weather history database for the weather conditions in past years. The results will help you decide how hot, cold, wet, or windy it might be!

Date:

Astronomy

Dec. 08, 2012 Rise Set
Actual Time 6:54 AM CST 5:55 PM CST
Civil Twilight 6:30 AM CST 6:19 PM CST
Nautical Twilight 6:03 AM CST 6:46 PM CST
Astronomical Twilight 5:36 AM CST 7:13 PM CST
Moon 1:54 AM CST (12/8) 1:56 PM CST (12/8)
Length of Visible Light 11h 48m
Length of Day
11h 01m
Waning Crescent, 28% of the Moon is Illuminated
Dec 8
Waning Crescent
Dec 13
New
Dec 19
First Quarter
Dec 28
Full
Jan 4
Last Quarter

Hourly Weather History & Observations

Time (CST) Temp. Windchill Dew Point Humidity Pressure Visibility Wind Dir Wind Speed Gust Speed Precip Events Conditions
5:50 AM 42 °F - 37 °F 77% 29.93 in 3 mi Calm Calm - -  
5:53 AM 35.6 °F 30.7 °F 26.6 °F 70% 30.23 in 6.0 mi NNW 5.8 mph - N/A   Scattered Clouds
6:40 AM 35.6 °F 29.2 °F 24.8 °F 65% 30.25 in 7.0 mi NNW 8.1 mph - N/A   Scattered Clouds
7:41 AM 41.0 °F 35.2 °F 24.8 °F 53% 30.26 in 7.0 mi NNW 9.2 mph - N/A   Mostly Cloudy
8:41 AM 48.2 °F - 28.4 °F 46% 30.29 in 7.0 mi North 8.1 mph - N/A   Mostly Cloudy
8:50 AM 51 °F - 39 °F 52% 30.03 in 3 mi Calm Calm - -   Haze
9:41 AM 59.0 °F - 33.8 °F 39% 30.29 in 7.0 mi NNE 4.6 mph - N/A   Scattered Clouds
10:41 AM 64.4 °F - 33.8 °F 32% 30.28 in 7.0 mi East 2.3 mph - N/A   Scattered Clouds
11:41 AM 68.0 °F - 33.8 °F 28% 30.25 in 7.0 mi South 8.1 mph - N/A   Scattered Clouds
12:00 PM 67 °F - 46 °F 36%  in 6 mi South 2.2 mph - -  
12:44 PM 68.0 °F - 33.8 °F 28% 30.22 in 7.0 mi South 18.4 mph - N/A   Scattered Clouds
1:40 PM 68.0 °F - 37.4 °F 33% 30.20 in 8.0 mi SSE 11.5 mph - N/A   Scattered Clouds
2:40 PM 68.0 °F - 37.4 °F 33% 30.19 in 7.0 mi SSE 12.7 mph - N/A   Scattered Clouds
2:50 PM 71 °F - 35 °F 16% 29.82 in 12 mi SSW 2.2 mph - -   Clear
3:40 PM 68.0 °F - 35.6 °F 30% 30.18 in 8.0 mi South 15.0 mph - N/A   Scattered Clouds
4:42 PM 66.2 °F - 35.6 °F 32% 30.19 in 8.0 mi SSE 15.0 mph - N/A   Partly Cloudy
5:41 PM 60.8 °F - 35.6 °F 39% 30.20 in 8.0 mi South 10.4 mph - N/A   Partly Cloudy
5:50 PM 64 °F - 33 °F 20% 29.73 in 12 mi SSE 2.2 mph - -  
6:40 PM 53.6 °F - 33.8 °F 47% 30.23 in 8.0 mi South 6.9 mph - N/A   Partly Cloudy
7:41 PM 53.6 °F - 33.8 °F 47% 30.25 in 7.0 mi SSW 5.8 mph - N/A   Partly Cloudy
8:41 PM 51.8 °F - 33.8 °F 50% 30.27 in 7.0 mi West 3.5 mph - N/A   Clear
8:56 PM 56 °F - 34 °F 31% 29.74 in 3 mi Calm Calm - -  
11:50 PM 51 °F - 36 °F 46% 29.84 in 3 mi Calm Calm - -